TimeCET,TemperatureF,Dew PointF,Humidity,Sea Level PressureIn,VisibilityMPH,Wind Direction,Wind SpeedMPH,Gust SpeedMPH,PrecipitationIn,Events,Conditions,WindDirDegrees,DateUTC
1:00 AM,49,42,70,29.99,,North,10.4,,,,,350,2012-11-12 00:00:00
5:00 AM,46.4,41.0,81,29.98,-9999.0,North,12.7,-,N/A,,Clear,360,2012-11-12 04:00:00
5:30 AM,46.4,41.0,81,29.98,6.2,North,13.8,-,N/A,,Scattered Clouds,360,2012-11-12 04:30:00
6:00 AM,46.4,41.0,81,29.98,6.2,North,11.5,-,N/A,,Scattered Clouds,10,2012-11-12 05:00:00
6:30 AM,46.4,41.0,81,29.98,6.2,North,12.7,-,N/A,,Scattered Clouds,10,2012-11-12 05:30:00
7:00 AM,46,41,78,30.02,16,North,11.5,,,,Scattered Clouds,0,2012-11-12 06:00:00
7:00 AM,46.4,41.0,81,30.01,6.2,North,10.4,-,N/A,,Scattered Clouds,360,2012-11-12 06:00:00
7:30 AM,46.4,41.0,81,30.01,6.2,North,10.4,-,N/A,,Partly Cloudy,360,2012-11-12 06:30:00
8:00 AM,46.4,41.0,81,30.01,6.2,NNE,11.5,-,N/A,,Partly Cloudy,20,2012-11-12 07:00:00
8:30 AM,48.2,41.0,76,30.04,6.2,NE,9.2,-,N/A,,Partly Cloudy,40,2012-11-12 07:30:00
9:00 AM,50.0,41.0,71,30.06,6.2,NE,10.4,-,N/A,,Partly Cloudy,50,2012-11-12 08:00:00
9:30 AM,51.8,41.0,67,30.06,6.2,NE,12.7,-,N/A,,Partly Cloudy,40,2012-11-12 08:30:00
10:00 AM,51.8,41.0,67,30.06,6.2,NE,16.1,-,N/A,,Partly Cloudy,40,2012-11-12 09:00:00
10:30 AM,53.6,41.0,62,30.09,6.2,NE,17.3,-,N/A,,Partly Cloudy,40,2012-11-12 09:30:00
11:00 AM,55.4,42.8,63,30.09,6.2,NNE,18.4,-,N/A,,Partly Cloudy,30,2012-11-12 10:00:00
12:30 PM,59.0,46.4,63,30.09,-9999.0,NE,15.0,-,N/A,,Clear,40,2012-11-12 11:30:00
1:00 PM,60.8,46.4,59,30.09,-9999.0,NE,12.7,-,N/A,,Clear,50,2012-11-12 12:00:00
2:00 PM,62.6,48.2,59,30.06,-9999.0,NE,12.7,-,N/A,,Clear,40,2012-11-12 13:00:00
2:30 PM,62.6,48.2,59,30.06,-9999.0,NNE,16.1,-,N/A,,Clear,30,2012-11-12 13:30:00
3:00 PM,64.4,48.2,56,30.06,-9999.0,NNE,15.0,-,N/A,,Clear,30,2012-11-12 14:00:00
3:30 PM,64.4,48.2,56,30.06,-9999.0,NE,13.8,-,N/A,,Clear,50,2012-11-12 14:30:00
4:00 PM,-9999,158.0,N/A,30.06,-9999.0,NE,12.7,-,N/A,,Unknown,40,2012-11-12 15:00:00
4:30 PM,64.4,50.0,59,30.06,6.2,NNE,11.5,-,N/A,,Partly Cloudy,30,2012-11-12 15:30:00
5:00 PM,64.4,50.0,59,30.06,6.2,NNE,11.5,-,N/A,,Partly Cloudy,20,2012-11-12 16:00:00
5:30 PM,62.6,50.0,63,30.09,-9999.0,NNE,10.4,-,N/A,,Clear,20,2012-11-12 16:30:00
6:00 PM,60.8,50.0,68,30.09,-9999.0,North,10.4,-,N/A,,Clear,10,2012-11-12 17:00:00
6:30 PM,59.0,50.0,72,30.09,-9999.0,NNE,8.1,-,N/A,,Clear,20,2012-11-12 17:30:00
7:00 PM,58,52,75,30.12,25,North,5.8,,,,Clear,0,2012-11-12 18:00:00
7:00 PM,57.2,51.8,82,30.09,-9999.0,North,5.8,-,N/A,,Clear,10,2012-11-12 18:00:00
7:30 PM,57.2,50.0,77,30.09,-9999.0,Variable,2.3,-,N/A,,Clear,0,2012-11-12 18:30:00
8:00 PM,60.8,50.0,68,30.12,-9999.0,NNE,11.5,-,N/A,,Clear,30,2012-11-12 19:00:00
8:30 PM,57.2,50.0,77,30.12,-9999.0,North,5.8,-,N/A,,Clear,10,2012-11-12 19:30:00
9:00 PM,57.2,50.0,77,30.12,-9999.0,North,10.4,-,N/A,,Clear,360,2012-11-12 20:00:00
9:30 PM,55.4,50.0,82,30.12,-9999.0,North,9.2,-,N/A,,Clear,10,2012-11-12 20:30:00
10:00 PM,55.4,50.0,82,30.12,-9999.0,North,11.5,-,N/A,,Clear,10,2012-11-12 21:00:00
10:30 PM,55.4,50.0,82,30.12,-9999.0,NNE,9.2,-,N/A,,Clear,20,2012-11-12 21:30:00
11:00 PM,55.4,50.0,82,30.12,-9999.0,North,4.6,-,N/A,,Clear,350,2012-11-12 22:00:00